| time (UTC) | temp F | wind direction | speed knots | gust knots | rain 1hr in | rain 24hr in | rain mn in | humidity % | barometer mb |
| 20260504223105 | 64 | 254 | 2.6 | 10.4 | 0.00 | 0.00 | 0.00 | 53 | 1011.5 |
| 20260504221546 | 65 | 262 | 2.6 | 7.8 | 0.00 | 0.00 | 0.00 | 52 | 1011.5 |
| 20260504220046 | 66 | 270 | 2.6 | 9.6 | 0.00 | 0.00 | 0.00 | 51 | 1011.4 |
| 20260504214546 | 67 | 274 | 5.2 | 14.8 | 0.00 | 0.00 | 0.00 | 46 | 1011.3 |
| 20260504213055 | 69 | 284 | 6.1 | 12.2 | 0.00 | 0.00 | 0.00 | 45 | 1011.3 |
| 20260504211543 | 69 | 310 | 6.1 | 13.0 | 0.00 | 0.00 | 0.00 | 44 | 1011.3 |
| 20260504210042 | 68 | 288 | 1.7 | 13.0 | 0.00 | 0.00 | 0.00 | 43 | 1011.3 |
| 20260504204546 | 68 | 280 | 7.8 | 16.5 | 0.00 | 0.00 | 0.00 | 43 | 1011.3 |
| 20260504203049 | 68 | 268 | 3.5 | 13.9 | 0.00 | 0.00 | 0.00 | 46 | 1011.2 |
| 20260504201537 | 68 | 288 | 6.1 | 10.4 | 0.00 | 0.00 | 0.00 | 47 | 1011.3 |
| 20260504200036 | 66 | 284 | 5.2 | 13.9 | 0.00 | 0.00 | 0.00 | 50 | 1011.4 |
| 20260504194536 | 67 | 286 | 8.7 | 17.4 | 0.00 | 0.00 | 0.00 | 46 | 1011.5 |
| 20260504193035 | 67 | 277 | 8.7 | 15.6 | 0.00 | 0.00 | 0.00 | 45 | 1011.7 |
| 20260504191532 | 68 | 287 | 5.2 | 19.1 | 0.00 | 0.00 | 0.00 | 47 | 1011.6 |
| 20260504190031 | 68 | 213 | 6.1 | 17.4 | 0.00 | 0.00 | 0.00 | 47 | 1011.7 |
| 20260504184528 | 67 | 281 | 5.2 | 17.4 | 0.00 | 0.00 | 0.00 | 47 | 1012.1 |
| 20260504183026 | 68 | 284 | 6.1 | 13.9 | 0.00 | 0.00 | 0.00 | 46 | 1012.2 |
| 20260504181525 | 67 | 295 | 11.3 | 24.3 | 0.00 | 0.00 | 0.00 | 43 | 1012.3 |
| 20260504180024 | 67 | 292 | 8.7 | 17.4 | 0.00 | 0.00 | 0.00 | 45 | 1012.2 |
| 20260504174521 | 67 | 285 | 6.1 | 14.8 | 0.00 | 0.00 | 0.00 | 44 | 1012.7 |
| 20260504173018 | 66 | 284 | 5.2 | 18.2 | 0.00 | 0.00 | 0.00 | 48 | 1012.8 |
| 20260504171515 | 65 | 268 | 6.1 | 17.4 | 0.00 | 0.00 | 0.00 | 48 | 1012.8 |
| 20260504150103 | 61 | 288 | 6.1 | 18.2 | 0.00 | 0.00 | 0.00 | 53 | 1014.3 |
| 20260504090105 | 42 | 294 | 2.6 | 6.1 | 0.00 | 0.01 | 0.00 | 70 | 1014.9 |
| 20260504081553 | 43 | 289 | 2.6 | 7.0 | 0.00 | 0.01 | 0.00 | 67 | 1014.9 |
| 20260504044542 | 43 | 310 | 2.6 | 6.1 | 0.00 | 0.01 | 0.00 | 63 | 1015.0 |
| 20260504043033 | 43 | 274 | 3.5 | 7.0 | 0.00 | 0.01 | 0.00 | 62 | 1015.2 |
| 20260504041531 | 43 | 288 | 2.6 | 6.1 | 0.00 | 0.01 | 0.00 | 63 | 1015.1 |
| 20260504040032 | 43 | 292 | 3.5 | 7.8 | 0.00 | 0.01 | 0.00 | 63 | 1015.0 |
| 20260504034527 | 42 | 288 | 3.5 | 7.0 | 0.00 | 0.01 | 0.01 | 62 | 1014.8 |
| 20260504033025 | 42 | 305 | 2.6 | 7.0 | 0.00 | 0.01 | 0.01 | 62 | 1014.5 |
| 20260504031528 | 42 | 321 | 4.3 | 11.3 | 0.00 | 0.01 | 0.01 | 62 | 1014.5 |
| 20260504030025 | 42 | 296 | 3.5 | 7.0 | 0.00 | 0.01 | 0.01 | 60 | 1014.5 |
| 20260504024523 | 41 | 293 | 2.6 | 7.8 | 0.00 | 0.01 | 0.01 | 61 | 1014.5 |
| 20260504023023 | 40 | 294 | 3.5 | 7.8 | 0.00 | 0.01 | 0.01 | 65 | 1014.4 |
| 20260504021522 | 40 | 297 | 2.6 | 6.1 | 0.00 | 0.01 | 0.01 | 67 | 1014.3 |
| 20260504020023 | 40 | 295 | 0.9 | 2.6 | 0.00 | 0.01 | 0.01 | 67 | 1014.2 |
| 20260504014523 | 41 | 296 | 1.7 | 3.5 | 0.00 | 0.01 | 0.01 | 66 | 1014.1 |
| 20260504013029 | 41 | 296 | 0.9 | 2.6 | 0.00 | 0.01 | 0.01 | 63 | 1013.9 |
| 20260504011521 | 41 | 297 | 1.7 | 2.6 | 0.00 | 0.01 | 0.01 | 62 | 1014.0 |
| 20260504010020 | 42 | 297 | 1.7 | 3.5 | 0.00 | 0.01 | 0.01 | 61 | 1013.7 |
| 20260504004521 | 43 | 297 | 0.9 | 2.6 | 0.00 | 0.01 | 0.01 | 59 | 1013.6 |
| 20260504003022 | 43 | 297 | 0.9 | 1.7 | 0.00 | 0.01 | 0.01 | 57 | 1013.4 |
| 20260504001520 | 44 | 298 | 0.9 | 2.6 | 0.00 | 0.01 | 0.01 | 57 | 1013.1 |
| 20260504000018 | 45 | 299 | 1.7 | 3.5 | 0.00 | 0.01 | 0.01 | 57 | 1013.1 |
| 20260503234518 | 46 | 300 | 2.6 | 7.0 | 0.00 | 0.01 | 0.01 | 55 | 1013.1 |
| 20260503233018 | 46 | 299 | 4.3 | 7.0 | 0.00 | 0.01 | 0.01 | 55 | 1012.9 |
| 20260503231521 | 47 | 304 | 0.9 | 8.7 | 0.00 | 0.01 | 0.01 | 55 | 1012.8 |
| 20260503230018 | 48 | 320 | 2.6 | 11.3 | 0.00 | 0.01 | 0.01 | 53 | 1012.8 |
| 20260503224517 | 48 | 330 | 4.3 | 13.9 | 0.00 | 0.01 | 0.01 | 53 | 1012.5 |